Other Public Products
Issued by NWS Grand Forks, ND

Home | Current Version | Previous Version | Text Only | Print | Product List | Glossary On
Versions: 1 2 3 4 5 6 7 8 9 10 11 12 13 14 15 16 17 18 19 20 21 22 23 24 25 26 27 28 29 30 31 32 33 34 35 36 37 38 39 40 41 42 43 44 45 46 47 48 49 50
000
FPUS83 KFGF 040610
OPUFGF
PRAIRIE TO PINES WEATHER ROUNDUP
NATIONAL WEATHER SERVICE EASTERN NORTH DAKOTA/GRAND FORKS ND
100 AM CDT TUE AUG 04 2015

 **SATELLITE DATA USED TO AUGMENT SKY COVER AT AUTOMATED STATIONS**
 *****  WEATHER ACROSS EASTERN NORTH DAKOTA  *****

CITY           SKY/WX    TMP DP  RH WIND       PRES   REMARKS
GRAND FORKS    CLEAR     54  50  86 N3        29.93R
6HR MIN TEMP:  53; 6HR MAX TEMP:  77;

GRAND FORKS AF CLEAR     53  49  85 NW6       29.94R
GRAND CITY NWS   N/A     57 N/A N/A NW1         N/A
BUXTON         NOT AVBL
DEVILS LAKE    CLEAR     61  52  72 SW3       29.96S
6HR MIN TEMP:  57; 6HR MAX TEMP:  75;

FARGO          CLEAR     56  49  77 SW6       29.95S
6HR MIN TEMP:  54; 6HR MAX TEMP:  78;

WAHPETON ARPT  CLEAR     54  46  76 CALM      29.97R
$$

 *****  WEATHER ACROSS CENTRAL AND WESTERN NORTH DAKOTA  *****

CITY           SKY/WX    TMP DP  RH WIND       PRES   REMARKS
JAMESTOWN      CLEAR     56  51  84 CALM      29.98S
6HR MIN TEMP:  56; 6HR MAX TEMP:  77;

BISMARCK       CLEAR     55  51  86 E3        29.99R
6HR MIN TEMP:  55; 6HR MAX TEMP:  80;

MINOT          CLEAR     60  49  66 CALM      29.97S
6HR MIN TEMP:  60; 6HR MAX TEMP:  78;

MINOT AFB      CLEAR     57  52  82 CALM      29.97R
6HR MIN TEMP:  56; 6HR MAX TEMP:  82;

GARRISON         N/A     61  52  72 CALM      29.98S
6HR MIN TEMP:  54; 6HR MAX TEMP:  79;

WILLISTON      CLEAR     66  51  58 E6        29.97S
6HR MIN TEMP:  66; 6HR MAX TEMP:  84;

DICKINSON      PTCLDY    57  49  74 E9        29.98S
6HR MIN TEMP:  57; 6HR MAX TEMP:  81;

HETTINGER      PTCLDY    64  51  62 E8        29.99F
6HR MIN TEMP:  62; 6HR MAX TEMP:  83;

$$

 *****  OTHER OBSERVATIONS NORTHEAST NORTH DAKOTA  *****

CITY           SKY/WX    TMP DP  RH WIND       PRES   REMARKS
WALHALLA       FAIR      54  54 100 MISG      29.96R
LANGDON        FAIR      48  46  93 CALM      29.98S
CAVALIER       FAIR      55  50  82 W6        29.95R
GRAFTON        FAIR      59  54  82 NW3       29.95S
CANDO          NOT AVBL
FORT TOTTEN    NOT AVBL
ROLLA          FAIR      48  46  93 NW6       30.00R
RUGBY          NOT AVBL
 ***** THE ABOVE OBSERVATIONS ARE NON NWS ARE NOT QUALITY
        CONTROLLED AND MAY MIS-REPORT RAIN FOR SNOW...
$$

 *****  OTHER OBSERVATIONS SOUTHEAST NORTH DAKOTA *****

CITY           SKY/WX    TMP DP  RH WIND       PRES   REMARKS
COOPERSTOWN    NOT AVBL
VALLEY CITY    FAIR      55  52  88 CALM      29.98R
OAKES            N/A     55  55 100 CALM      29.98S
GWINNER          N/A     55  52  88 SW3       29.98S
SHEYENNE NWR     N/A     53  51  92 CALM      29.95S
BUFFALO        NOT AVBL
WYNDMERE         N/A     52  48  87 SW2         N/A
 ***** THE ABOVE OBSERVATIONS ARE NON NWS ARE NOT QUALITY
       CONTROLLED AND MAY MIS-REPORT RAIN FOR SNOW...
$$

  *****  WEATHER ACROSS NORTHERN MINNESOTA  *****

CITY           SKY/WX    TMP DP  RH WIND       PRES   REMARKS
FLAG ISLAND    CLEAR     61  54  77 W9        29.90R
WARROAD        CLEAR     55  52  88 W3        29.93R
ROSEAU         CLEAR     55  50  82 CALM      29.93S
HALLOCK        MOCLDY    54  50  87 CALM      29.94R
THF RVR FALLS  CLEAR     54  48  82 CALM      29.95R
6HR MIN TEMP:  54; 6HR MAX TEMP:  72;

HALSTAD        NOT AVBL
FOSSTON        CLEAR     48  46  93 CALM      29.97R
BAUDETTE       CLEAR     54  50  86 W6        29.91R
6HR MIN TEMP:  53; 6HR MAX TEMP:  68;

WASKISH        CLEAR     63  55  77 W6        29.92R
CROOKSTON      CLEAR     57  54  88 CALM      29.95S
$$
  *****  WEATHER ACROSS CENTRAL AND WEST MINNESOTA  *****

CITY           SKY/WX    TMP DP  RH WIND       PRES   REMARKS
BEMIDJI        CLEAR     53  46  77 W5        29.95R
PARK RAPIDS    CLEAR     55  48  77 CALM      29.96R
6HR MIN TEMP:  53; 6HR MAX TEMP:  73;

WADENA         CLEAR     52  46  82 CALM      29.96F
DETROIT LAKES  CLEAR     59  54  82 CALM      29.97F
MOORHEAD       CLEAR     55  50  82 S3        29.96S
FERGUS FALLS   CLEAR     57  54  88 CALM      29.97S
ELBOW LAKE     FAIR      56  54  94 S3        29.98R
MORRIS MN      CLEAR     55  52  88 CALM      29.97S
STAPLES        CLEAR     55  48  76 CALM      29.96F
WHEATON        CLEAR     54  48  82 CALM      29.99S
$$
  *****  WEATHER ELSEWHERE ACROSS MINNESOTA  *****

CITY           SKY/WX    TMP DP  RH WIND       PRES   REMARKS
DULUTH         CLEAR     54  49  83 W7        29.91R
6HR MIN TEMP:  53; 6HR MAX TEMP:  68;

INTRNTL FALLS  CLEAR     46  45  96 CALM      29.90R
6HR MIN TEMP:  45; 6HR MAX TEMP:  64;

ELY            CLEAR     54  52  94 CALM      29.89S
CLOQUET        PTCLDY    55  48  76 W3        29.92S
BRAINERD       CLEAR     52  50  93 CALM      29.96R
6HR MIN TEMP:  51; 6HR MAX TEMP:  72;

HIBBING        CLEAR     47  45  93 CALM      29.91S
6HR MIN TEMP:  46; 6HR MAX TEMP:  66;

ALEXANDRIA     CLEAR     57  53  86 SW3       29.99S
6HR MIN TEMP:  56; 6HR MAX TEMP:  74;

SAINT CLOUD    CLEAR     55  52  89 N3        29.96S
6HR MIN TEMP:  55; 6HR MAX TEMP:  75;

MINNEAPOLIS    PTCLDY    66  53  63 NW8       29.94S
6HR MIN TEMP:  66; 6HR MAX TEMP:  77;

$$

  *****  WEATHER ACROSS SOUTH DAKOTA  *****

CITY           SKY/WX    TMP DP  RH WIND       PRES   REMARKS
SIOUX FALLS    CLEAR     60  57  89 CALM      29.99R
6HR MIN TEMP:  59; 6HR MAX TEMP:  81;

BROOKINGS      CLEAR     63  52  67 E3        30.01S
WATERTOWN      CLEAR     61  51  70 CALM      29.99S
6HR MIN TEMP:  60; 6HR MAX TEMP:  76;

HURON          PTCLDY    64  56  75 SE6       29.96S
6HR MIN TEMP:  64; 6HR MAX TEMP:  81;

SISSETON         N/A     52  49  89 CALM      29.97S
ABERDEEN       CLEAR     60  53  77 CALM      29.97S
6HR MIN TEMP:  59; 6HR MAX TEMP:  80;

MITCHELL       PTCLDY    63  57  81 SE7       29.97F
PIERRE         PTCLDY    65  56  72 E8        29.94S
6HR MIN TEMP:  64; 6HR MAX TEMP:  85;

MOBRIDGE       PTCLDY    66  54  65 E10       29.95R
RAPID CITY     CLOUDY    68  59  73 CALM      29.97F
6HR MIN TEMP:  67; 6HR MAX TEMP:  82;

$$

  *****  SOME WEATHER IN NEARBY STATES *****

CITY           SKY/WX    TMP DP  RH WIND       PRES   REMARKS
GLASGOW MT     CLEAR     69  45  41 E15       29.89S
6HR MIN TEMP:  69; 6HR MAX TEMP:  87;

GREAT FALLS MT MOCLDY    75  45  34 S12       29.82S
6HR MIN TEMP:  74; 6HR MAX TEMP:  96;

CHEYENNE WY    CLOUDY    64  47  53 SW5       30.13F
6HR MIN TEMP:  64; 6HR MAX TEMP:  79;

SCOTTSBLUFF NE CLOUDY    74  51  44 S6        29.99S
6HR MIN TEMP:  72; 6HR MAX TEMP:  89;

OMAHA NE       CLOUDY    73  63  70 E6        29.98R
6HR MIN TEMP:  73; 6HR MAX TEMP:  81;

DES MOINES IA  PTCLDY    67  59  75 S3        29.97S
6HR MIN TEMP:  67; 6HR MAX TEMP:  80;

DAVENPORT IA   CLEAR     59  56  89 W5        29.96S
6HR MIN TEMP:  58; 6HR MAX TEMP:  76;

CHICAGO IL     CLEAR     67  56  67 NW8       29.91S
6HR MIN TEMP:  67; 6HR MAX TEMP:  78;

EAU CLAIRE WI  PTCLDY    64  53  67 N6        29.91R
6HR MIN TEMP:  63; 6HR MAX TEMP:  75;

LA CROSSE WI   CLEAR     63  56  78 S6        29.91S
6HR MIN TEMP:  61; 6HR MAX TEMP:  78;

$$

  *****  SOME NATIONAL WEATHER *****

CITY           SKY/WX    TMP DP  RH WIND       PRES   REMARKS
LA GUARDIA NY  MOCLDY    81  64  56 SW10      29.81R


USA.gov is the U.S. government's official web portal to all federal, state and local government web resources and services.